• In Slovakia
  • List of Countries
  • For 7 days
  • Water Temperature
  • Satellite Maps
  • Weather Map
  • Weather Widgets
  • user-avatar
    Login

    Hourly Weather Puyo

    Today, 17 October, Wednesday

    Time Temperature Precipitation Wind Pressure Humidity
    00:00 +21°C° 0 mm 1 mps 670 mmHg 90%
    01:00 +21°C° 0 mm 1 mps 669 mmHg 90%
    02:00 +21°C° 0 mm 1 mps 669 mmHg 89%
    03:00 +20°C° 0 mm 1 mps 669 mmHg 87%
    04:00 +20°C° 0 mm 1 mps 669 mmHg 86%
    05:00 +21°C° 0 mm 1 mps 669 mmHg 83%
    06:00 +22°C° 0 mm 1 mps 670 mmHg 79%
    07:00 +23°C° 0 mm 1 mps 671 mmHg 73%
    08:00 +26°C° 0 mm 1 mps 671 mmHg 65%
    09:00 +28°C° 0 mm 1 mps 672 mmHg 56%
    10:00 +30°C° 0 mm 2 mps 672 mmHg 47%
    11:00 +30°C° 0.1 mm 2 mps 672 mmHg 47%
    12:00 +31°C° 0.1 mm 2 mps 671 mmHg 47%
    13:00 +31°C° 0.1 mm 2 mps 671 mmHg 48%
    14:00 +31°C° 0.4 mm 2 mps 670 mmHg 51%
    15:00 +30°C° 0.4 mm 2 mps 670 mmHg 55%
    16:00 +30°C° 0.4 mm 1 mps 669 mmHg 59%
    17:00 +27°C° 0.6 mm 1 mps 669 mmHg 67%
    18:00 +25°C° 0.6 mm 1 mps 669 mmHg 76%
    19:00 +23°C° 0.6 mm 1 mps 669 mmHg 85%
    20:00 +23°C° 0.4 mm 1 mps 669 mmHg 86%
    21:00 +22°C° 0.4 mm 1 mps 669 mmHg 88%
    22:00 +22°C° 0.4 mm 1 mps 670 mmHg 90%
    23:00 +21°C° 0.3 mm 1 mps 669 mmHg 89%

    Tomorrow, 18 October, Thursday

    Time Temperature Precipitation Wind Pressure Humidity
    00:00 +21°C° 0.3 mm 1 mps 669 mmHg 88%
    01:00 +21°C° 0.3 mm 1 mps 669 mmHg 87%
    02:00 +21°C° 0.1 mm 1 mps 669 mmHg 86%
    03:00 +20°C° 0.1 mm 1 mps 669 mmHg 85%
    04:00 +20°C° 0.1 mm 1 mps 668 mmHg 84%
    05:00 +21°C° 0 mm 1 mps 669 mmHg 80%
    06:00 +22°C° 0 mm 1 mps 669 mmHg 75%
    07:00 +23°C° 0 mm 1 mps 670 mmHg 71%
    08:00 +25°C° 0 mm 1 mps 671 mmHg 60%
    09:00 +28°C° 0 mm 2 mps 672 mmHg 50%
    10:00 +31°C° 0 mm 2 mps 672 mmHg 39%
    11:00 +32°C° 0 mm 2 mps 672 mmHg 39%
    12:00 +32°C° 0 mm 2 mps 671 mmHg 39%
    13:00 +34°C° 0 mm 2 mps 671 mmHg 39%
    14:00 +32°C° 0.2 mm 2 mps 670 mmHg 44%
    15:00 +31°C° 0.2 mm 2 mps 670 mmHg 49%
    16:00 +30°C° 0.2 mm 2 mps 669 mmHg 55%
    17:00 +28°C° 0.7 mm 1 mps 669 mmHg 64%
    18:00 +26°C° 0.7 mm 1 mps 669 mmHg 74%
    19:00 +24°C° 0.7 mm 1 mps 669 mmHg 83%
    20:00 +23°C° 0.3 mm 1 mps 669 mmHg 85%
    21:00 +22°C° 0.3 mm 1 mps 670 mmHg 87%
    22:00 +22°C° 0.3 mm 1 mps 670 mmHg 88%
    23:00 +22°C° 0 mm 1 mps 670 mmHg 87%

    Day after tomorrow, 19 October, Friday

    Time Temperature Precipitation Wind Pressure Humidity
    00:00 +21°C° 0 mm 1 mps 670 mmHg 86%
    01:00 +21°C° 0 mm 1 mps 669 mmHg 85%
    02:00 +21°C° 0 mm 1 mps 669 mmHg 83%
    03:00 +21°C° 0 mm 1 mps 669 mmHg 82%
    04:00 +21°C° 0 mm 1 mps 668 mmHg 80%
    05:00 +21°C° 0.1 mm 1 mps 669 mmHg 76%
    06:00 +22°C° 0.1 mm 1 mps 669 mmHg 73%
    07:00 +23°C° 0.1 mm 1 mps 670 mmHg 69%
    08:00 +26°C° 0 mm 1 mps 671 mmHg 58%
    09:00 +29°C° 0 mm 1 mps 672 mmHg 48%
    10:00 +32°C° 0 mm 2 mps 673 mmHg 37%
    11:00 +34°C° 0 mm 2 mps 672 mmHg 36%
    12:00 +34°C° 0 mm 2 mps 671 mmHg 35%
    13:00 +35°C° 0 mm 2 mps 670 mmHg 34%
    14:00 +34°C° 0.1 mm 2 mps 670 mmHg 39%
    15:00 +32°C° 0.1 mm 2 mps 669 mmHg 43%
    16:00 +32°C° 0.1 mm 2 mps 668 mmHg 48%
    17:00 +29°C° 0.6 mm 1 mps 668 mmHg 58%
    18:00 +27°C° 0.6 mm 1 mps 668 mmHg 69%
    19:00 +24°C° 0.6 mm 1 mps 668 mmHg 79%
    20:00 +24°C° 0.6 mm 1 mps 669 mmHg 82%
    21:00 +23°C° 0.6 mm 1 mps 669 mmHg 85%
    22:00 +22°C° 0.6 mm 1 mps 670 mmHg 88%
    23:00 +22°C° 0.2 mm 1 mps 669 mmHg 87%

    20 October, Saturday

    Time Temperature Precipitation Wind Pressure Humidity
    00:00 +22°C° 0.2 mm 1 mps 669 mmHg 86%
    01:00 +22°C° 0.2 mm 1 mps 669 mmHg 85%
    02:00 +22°C° 0 mm 1 mps 668 mmHg 84%
    03:00 +22°C° 0 mm 1 mps 668 mmHg 83%
    04:00 +22°C° 0 mm 1 mps 668 mmHg 82%
    05:00 +22°C° 0 mm 1 mps 668 mmHg 79%
    06:00 +23°C° 0 mm 1 mps 669 mmHg 76%
    07:00 +24°C° 0 mm 1 mps 670 mmHg 74%
    08:00 +26°C° 0 mm 1 mps 670 mmHg 66%
    09:00 +28°C° 0 mm 1 mps 671 mmHg 58%
    10:00 +31°C° 0 mm 2 mps 672 mmHg 50%
    11:00 +31°C° 0.3 mm 2 mps 671 mmHg 52%
    12:00 +31°C° 0.3 mm 2 mps 670 mmHg 55%
    13:00 +31°C° 0.3 mm 2 mps 670 mmHg 57%
    14:00 +30°C° 1.1 mm 1 mps 669 mmHg 62%
    15:00 +29°C° 1.1 mm 1 mps 668 mmHg 67%
    16:00 +26°C° 1.1 mm 0 mps 667 mmHg 72%
    17:00 +26°C° 1 mm 1 mps 668 mmHg 77%
    18:00 +25°C° 1 mm 1 mps 668 mmHg 82%
    19:00 +24°C° 1 mm 1 mps 668 mmHg 86%
    20:00 +23°C° 0.7 mm 1 mps 668 mmHg 87%
    21:00 +23°C° 0.7 mm 1 mps 669 mmHg 87%
    22:00 +23°C° 0.7 mm 1 mps 669 mmHg 87%
    23:00 +23°C° 0.2 mm 1 mps 669 mmHg 86%

    21 October, Sunday

    Time Temperature Precipitation Wind Pressure Humidity
    00:00 +22°C° 0.2 mm 1 mps 668 mmHg 85%
    01:00 +22°C° 0.2 mm 1 mps 668 mmHg 83%
    02:00 +22°C° 0 mm 1 mps 668 mmHg 81%
    03:00 +22°C° 0 mm 1 mps 668 mmHg 80%
    04:00 +22°C° 0 mm 1 mps 667 mmHg 78%
    05:00 +23°C° 0 mm 1 mps 668 mmHg 74%
    06:00 +23°C° 0 mm 1 mps 669 mmHg 70%
    07:00 +24°C° 0 mm 1 mps 670 mmHg 66%
    08:00 +27°C° 0 mm 1 mps 670 mmHg 60%
    09:00 +29°C° 0 mm 1 mps 671 mmHg 53%
    10:00 +32°C° 0 mm 2 mps 672 mmHg 46%
    11:00 +32°C° 0.7 mm 2 mps 671 mmHg 49%
    12:00 +32°C° 0.7 mm 2 mps 670 mmHg 52%
    13:00 +32°C° 0.7 mm 2 mps 669 mmHg 55%
    14:00 +31°C° 2.5 mm 1 mps 668 mmHg 62%
    15:00 +29°C° 2.5 mm 1 mps 668 mmHg 69%
    16:00 +26°C° 2.5 mm 0 mps 667 mmHg 76%
    17:00 +26°C° 5.2 mm 1 mps 667 mmHg 81%
    18:00 +25°C° 5.2 mm 1 mps 667 mmHg 86%
    19:00 +23°C° 5.2 mm 1 mps 668 mmHg 91%
    20:00 +23°C° 1.8 mm 1 mps 668 mmHg 91%
    21:00 +22°C° 1.8 mm 1 mps 668 mmHg 92%
    22:00 +21°C° 1.8 mm 2 mps 669 mmHg 92%
    23:00 +22°C° 0.4 mm 1 mps 669 mmHg 91%

    22 October, Monday

    Time Temperature Precipitation Wind Pressure Humidity
    00:00 +22°C° 0.4 mm 1 mps 669 mmHg 90%
    01:00 +21°C° 0.4 mm 1 mps 668 mmHg 89%
    02:00 +21°C° 0 mm 1 mps 668 mmHg 87%
    03:00 +21°C° 0 mm 1 mps 668 mmHg 85%
    04:00 +21°C° 0 mm 1 mps 668 mmHg 82%
    05:00 +22°C° 0 mm 1 mps 668 mmHg 79%
    06:00 +23°C° 0 mm 1 mps 669 mmHg 75%
    07:00 +23°C° 0 mm 1 mps 670 mmHg 71%
    08:00 +26°C° 0 mm 1 mps 670 mmHg 63%
    09:00 +29°C° 0 mm 1 mps 671 mmHg 54%
    10:00 +31°C° 0 mm 1 mps 671 mmHg 46%
    11:00 +32°C° 0 mm 1 mps 671 mmHg 47%
    12:00 +32°C° 0 mm 2 mps 670 mmHg 48%
    13:00 +34°C° 0 mm 2 mps 669 mmHg 49%
    14:00 +32°C° 0.8 mm 1 mps 668 mmHg 57%
    15:00 +30°C° 0.8 mm 1 mps 668 mmHg 66%
    16:00 +29°C° 0.8 mm 1 mps 667 mmHg 74%
    17:00 +27°C° 2.4 mm 1 mps 667 mmHg 78%
    18:00 +25°C° 2.4 mm 1 mps 668 mmHg 83%
    19:00 +24°C° 2.4 mm 1 mps 668 mmHg 88%
    20:00 +23°C° 4.1 mm 1 mps 669 mmHg 89%
    21:00 +23°C° 4.1 mm 1 mps 669 mmHg 90%
    22:00 +22°C° 4.1 mm 1 mps 669 mmHg 92%
    23:00 +22°C° 1.4 mm 1 mps 669 mmHg 90%
    Show more